Location: *
(36.2833°N, 6.6167°E)
Time: 18:07:42
(UTC+00:00)

Daily predictions for brighter satellites

Satellite Brightness Start Highest point End
(mag) Time Altitude Azimuth Time Altitude Azimuth Time Altitude Azimuth
Meteor 1-11 4.5 19:10:07 10° S 19:15:53 83° W 19:21:43 10° N
Cosmos 2233 Rocket 4.1 19:11:16 10° S 19:17:27 64° E 19:23:42 10° NNE
Cosmos 2360 Rocket 3.8 19:17:04 10° SE 19:19:40 13° E 19:22:16 10° ENE
Cosmos 1461 4.2 19:19:03 10° N 19:22:18 24° NE 19:25:35 10° ESE
Cosmos 1980 Rocket 3.0 19:18:21 10° SW 19:23:53 57° WNW 19:29:24 10° NNE
Cosmos 2221 2.6 19:20:10 10° N 19:24:33 88° ENE 19:28:56 10° S
Cosmos 371 Rocket 3.8 19:23:03 10° N 19:27:43 43° ENE 19:32:19 10° SE
SJ-6B 2.9 19:24:31 10° S 19:28:14 74° WSW 19:31:58 10° NNW
ISS -3.7 19:25:03 10° SSW 19:28:18 54° SE 19:31:35 10° ENE
H-2A R/B 2.3 19:26:49 10° SSE 19:32:10 59° ENE 19:37:28 10° N
Aureole 1 Rocket 3.5 19:29:21 10° S 19:33:36 54° ESE 19:39:18 10° NNE
Cosmos 1076 Rocket 3.6 19:29:56 10° S 19:34:17 84° W 19:38:41 10° N
ERBS 2.3 19:32:55 10° NW 19:36:13 68° NE 19:39:02 13° SE
Cosmos 332 Rocket 4.1 19:35:48 10° N 19:40:28 49° ENE 19:44:41 12° SE
Cosmos 1455 4.3 19:38:02 10° NNW 19:41:14 27° W 19:44:25 10° SSW
Meteor 1-27 4.4 19:36:09 10° N 19:42:02 82° W 19:47:50 10° S
CZ-2C R/B 3.8 19:43:21 10° NE 19:47:17 22° E 19:50:01 15° SE
Cosmos 1869 3.6 19:45:20 10° N 19:49:10 47° E 19:52:16 14° SSE
Cosmos 2322 Rocket 2.2 19:43:55 10° S 19:49:29 59° ESE 19:55:06 10° NNE
Cosmos 1340 Rocket 3.3 19:45:41 10° N 19:49:37 44° ENE 19:52:41 15° SSE
IRIDIUM 104 4.3 19:44:48 10° N 19:50:02 85° E 19:55:15 10° S
Cosmos 2151 3.3 19:48:26 10° SSE 19:52:30 45° E 19:56:36 10° NNE
Cosmos 2251 Rocket 3.6 19:49:25 10° SSW 19:54:40 85° WNW 19:59:56 10° NNE
Cosmos 44 Rocket 3.4 19:49:51 10° SSW 19:54:55 59° ESE 19:59:55 10° NE
SL-16 R/B 2.1 19:49:44 10° SSW 19:55:23 77° ESE 20:01:04 10° NNE
Iridium 4 Rocket 4.3 19:52:06 10° NNE 19:57:37 40° E 20:01:39 17° SE
DMSP B5D2-2 4.2 19:52:31 10° NNE 19:57:38 55° E 20:02:42 10° S
Cosmos 1302 Rocket 4.1 19:53:44 10° NNW 19:58:57 79° WSW 20:03:53 11° SSE
IRIDIUM 114 4.5 19:53:57 10° N 19:59:10 78° W 20:04:22 10° S
Cosmos 1825 4.4 20:00:42 11° E 20:00:42 11° E 20:01:34 10° ENE
Okean 3 Rocket 3.7 19:56:25 10° S 20:00:57 85° W 20:05:30 10° N
Resurs 1-3 3.9 19:59:32 10° S 20:03:54 68° W 20:08:16 10° NNW
ARGOS 3.4 19:58:39 10° S 20:04:03 72° WSW 20:09:28 10° NNW
ADEOS Rocket 2.7 19:59:05 10° NNE 20:04:39 77° ESE 20:10:08 10° S
Cosmos 1464 Rocket 4.0 20:04:30 10° S 20:10:44 67° E 20:16:55 10° NNE
Tiangong 2 2.5 20:14:34 10° NW 20:17:25 32° NNE 20:19:09 18° ENE
EO 1 Del DPAF 3.7 20:13:55 10° NNE 20:17:29 38° E 20:18:32 31° SE
MTI 4.0 20:14:45 10° N 20:17:54 66° WNW 20:20:55 11° SSW
In-Cosmos 22 Rocket 4.1 20:12:35 10° S 20:17:57 85° E 20:23:30 10° N
Cosmos 1766 Rocket 3.6 20:13:57 10° S 20:18:16 76° W 20:22:36 10° N
Cosmos 2263 Rocket 2.2 20:14:54 10° NNW 20:20:38 79° ENE 20:24:10 24° SSE
Cosmos 1992 Rocket 4.1 20:17:55 10° N 20:23:06 60° ENE 20:25:47 28° SE
SL-08 RB Rocket 4.3 20:21:09 13° S 20:25:06 52° W 20:29:29 10° NNW
Cosmos 1408 Rocket 3.4 20:21:46 15° S 20:25:14 85° E 20:29:33 10° N
USA 245 4.2 20:26:51 17° NE 20:26:51 17° NE 20:27:42 10° NNE
Spot 2 Rocket 3.5 20:25:41 22° SSE 20:29:03 88° WSW 20:34:12 10° NNW
Cosmos 2237 4.3 20:25:16 14° S 20:29:59 52° ESE 20:35:29 10° NNE
Cosmos 1242 Rocket 3.6 20:26:42 10° SSW 20:30:11 45° WNW 20:33:44 10° N
Cosmos 1892 2.7 20:29:12 21° S 20:31:43 82° W 20:35:34 10° N
MetOp-B 4.1 20:30:51 25° SSE 20:34:02 84° ENE 20:39:26 10° NNW
SPOT 5 3.9 20:35:44 27° E 20:37:10 32° ENE 20:41:30 10° N
CZ-2C R/B 3.4 20:33:39 18° S 20:37:41 66° WSW 20:42:53 10° NNW
Cosmos 1356 Rocket 4.4 20:41:47 10° NNE 20:45:38 31° ENE 20:45:51 31° E
Cosmos 2228 Rocket 3.6 20:41:21 10° N 20:45:40 42° E 20:46:20 39° ESE
Resurs 01 Rocket 3.3 20:42:13 10° SSW 20:45:58 29° W 20:49:50 10° NW
SL-4 R/B 2.3 20:41:17 10° SW 20:46:06 87° SE 20:50:56 10° NE
Cosmos 921 Rocket 2.9 20:42:59 10° NNW 20:47:16 79° ENE 20:48:18 51° SSE
COSMOS 2428 3.7 20:48:54 27° E 20:48:54 27° E 20:53:14 10° NE
CARTOSAT-1 4.4 20:49:10 33° E 20:49:33 34° ENE 20:53:26 10° N
DELTA 2 R/B (1) 3.5 20:44:01 10° WSW 20:49:37 87° NNW 20:55:04 11° ENE
USA 267 3.3 20:47:06 30° ESE 20:50:33 70° NE 20:57:05 10° NW
NOSS 3-1 (C) 3.1 20:55:06 26° S 20:58:06 64° ESE 21:04:04 10° NE
Landsat 7 3.8 20:57:35 51° SE 20:58:37 68° ENE 21:03:22 10° N
Cosmos 1151 Rocket 3.3 20:55:07 10° NNW 20:59:28 65° W 21:00:48 41° SSW
Cosmos 1461 4.4 20:58:01 10° WNW 21:01:18 25° WSW 21:02:20 22° SW
Cosmos 2360 Rocket 2.4 20:57:21 10° SSW 21:02:57 69° WNW 21:08:36 10° NNE
ISS -0.7 21:02:50 10° WNW 21:05:12 18° NNW 21:07:35 10° NNE
Cosmos 676 Rocket 4.3 21:05:24 44° E 21:05:24 44° E 21:10:15 10° NNE
Timation 1 Rocket 4.4 20:59:41 10° NNW 21:05:39 71° WSW 21:07:51 40° S
Cosmos 1408 3.2 21:11:39 50° WSW 21:12:03 53° W 21:15:43 10° N
Sich 1 4.4 21:14:34 26° ENE 21:14:34 26° ENE 21:17:02 10° NNE
Cosmos 1500 Rocket 4.1 21:15:38 40° SW 21:16:56 57° W 21:21:21 10° N
Cosmos 1954 Rocket 4.1 21:20:00 56° E 21:20:00 56° E 21:25:00 10° NNE
Cosmos 1606 3.7 21:16:33 10° N 21:19:13 38° NNE 21:19:13 38° NNE
Cosmos 292 Rocket 4.2 21:17:08 10° N 21:21:48 46° ENE 21:21:48 46° ENE
MOS 1 Rocket 3.4 21:21:05 10° NNE 21:25:06 57° ENE 21:25:06 57° ENE
CZ-2C R/B 3.8 21:22:52 10° N 21:27:40 38° WNW 21:31:32 15° SW
Terra 1.8 21:27:45 67° ENE 21:27:45 67° ENE 21:32:29 10° N
Cosmos 1140 Rocket 3.3 21:27:45 66° SSW 21:28:31 89° W 21:33:44 10° NNE
Cosmos 1933 3.6 21:24:30 10° NNW 21:28:09 65° NW 21:28:09 65° NW
Nadezhda 4 Rocket 4.4 21:22:51 10° NNW 21:28:58 56° W 21:31:31 34° SSW
Cosmos 407 Rocket 4.2 21:27:19 24° SW 21:30:20 53° WNW 21:35:34 10° N
Cosmos 2279 Rocket 4.1 21:31:09 51° ESE 21:31:33 52° E 21:37:31 10° NNE
Cosmos 2219 Rocket 2.1 21:33:10 65° ESE 21:33:12 65° ESE 21:38:49 10° NNE
Cosmos 2333 4.2 21:33:29 45° SSW 21:35:18 80° WNW 21:41:01 10° NNE
Cosmos 1825 3.5 21:35:30 35° W 21:35:32 35° W 21:39:02 10° NNW
USA 229 DEB 4.2 21:29:19 10° SW 21:35:45 57° NW 21:42:28 10° NNE
USA 229 4.1 21:29:25 10° SW 21:35:51 58° NW 21:42:34 10° NNE
Meteor 2-3 Rocket 3.8 21:34:30 49° SSW 21:36:05 75° W 21:41:55 10° N
ERS-1 Rocket 3.6 21:37:30 41° SW 21:38:23 45° W 21:43:14 10° NNW
USA 81 4.0 21:33:15 10° N 21:38:33 78° W 21:39:02 71° SW
NOSS 3-1 (A) 3.0 21:38:17 69° SSW 21:38:59 84° ESE 21:45:06 10° NNE
Cosmos 2333 Rocket 2.0 21:39:40 73° ESE 21:39:48 74° ESE 21:45:29 10° NNE
Meteor 1-26 Rocket 4.0 21:39:54 10° N 21:45:31 81° W 21:45:56 75° SSW
Cosmos 2278 Rocket 3.8 21:41:36 10° N 21:45:51 21° ENE 21:46:37 21° ENE
Cosmos 1092 Rocket 4.2 21:41:06 10° NNW 21:47:14 63° W 21:48:40 49° SW
Cosmos 1428 Rocket 4.3 21:44:48 10° N 21:51:06 79° E 21:51:43 72° SE
Cosmos 1707 Rocket 4.4 21:49:01 10° N 21:52:17 45° NNE 21:52:17 45° NNE
Cosmos 1607 4.1 21:47:51 10° NNW 21:53:55 57° ENE 21:54:31 55° E
Tiangong 2 4.3 21:51:09 10° WNW 21:51:17 11° WNW 21:51:17 11° WNW
Cosmos 1844 Rocket 2.7 21:54:14 10° NNW 21:59:54 74° WSW 21:59:54 74° WSW
SeaSat 1 4.4 21:57:13 10° NE 21:58:44 18° ENE 21:58:44 18° ENE
NOSS 0 Rocket 4.1 22:06:55 58° ENE 22:06:55 58° ENE 22:12:14 10° NNE
IRAS Rocket 4.2 22:11:40 80° WNW 22:11:40 80° WNW 22:17:05 10° NNW
Cosmos 2026 Rocket 4.5 22:14:35 10° NNW 22:20:24 49° W 22:21:00 47° WSW
Cosmos 1655 Rocket 3.9 22:17:29 10° N 22:23:37 85° NNE 22:23:37 85° NNE
Cosmos 1818 3.9 22:20:01 10° NNW 22:24:37 64° NNW 22:24:37 64° NNW
Mayak 0.3 22:25:10 10° N 22:27:40 34° N 22:27:40 34° N
Meteor 1-10 Rocket 4.4 22:25:09 10° N 22:30:09 71° N 22:30:09 71° N
ALOS 2 4.5 22:33:16 25° NNE 22:33:16 25° NNE 22:35:34 10° N
SL-16 R/B 4.0 22:34:08 20° ENE 22:34:08 20° ENE 22:36:22 10° NE
COSMOS 2428 3.9 22:30:50 31° W 22:32:30 37° WNW 22:37:48 10° N
USA 267 4.5 22:34:27 28° WSW 22:34:27 28° WSW 22:39:17 10° WNW
DELTA 2 R/B (1) 4.0 22:30:49 10° W 22:35:50 58° NNW 22:35:50 58° NNW
Lacrosse 4 Rocket 4.3 22:41:23 11° NE 22:41:23 11° NE 22:41:40 10° NE
ATLAS CENTAUR R/B 3.5 22:36:46 10° N 22:39:44 25° NNE 22:39:44 25° NNE
Cosmos 1980 4.0 22:42:14 63° N 22:42:14 63° N 22:47:02 10° NNE
Cosmos 1867 4.2 22:44:54 51° NW 22:44:54 51° NW 22:50:03 10° NNE
Cosmos 2237 Rocket 2.6 22:49:41 59° N 22:49:41 59° N 22:54:21 10° NNE
COSMOS 2455 3.5 22:51:59 46° NE 22:51:59 46° NE 22:56:16 10° NNE
Lacrosse 5 4.4 22:50:52 10° N 22:53:53 16° NNE 22:56:25 11° ENE
Terra 4.5 23:06:38 10° W 23:06:38 10° W 23:06:39 10° W
Cosmos 2266 Rocket 4.3 23:04:38 10° NNW 23:10:16 59° WNW 23:10:16 59° WNW
Meteor 1-27 Rocket 4.5 23:14:42 10° NNW 23:19:24 49° WNW 23:19:24 49° WNW
Cosmos 2278 Rocket 3.3 23:24:44 10° NNW 23:28:27 37° WNW 23:28:27 37° WNW
ATLAS 5 CENTAUR R/B 4.4 23:27:42 10° N 23:32:08 21° NE 23:35:45 14° E
SeaSat 1 3.9 23:34:38 10° N 23:38:30 31° NW 23:38:30 31° NW
Lacrosse 5 rocket 3.6 23:48:14 10° NNW 23:50:38 26° N 23:50:38 26° N
